UWE-1

operational
NORAD ID: 28892 Int'l Des: 2005-043 Owner: WURZ Country: D
LEOCIRCULARRETROGRADESSO

About UWE-1

Description loading...

Live Position

Loading 3D Globe...

Upcoming Passes

Altitude History

Altitude vs Time

uPlot chart will show altitude changes over time

Two-Line Element Set

1 28892U 05043C 26061.47505914 .00002452 00000-0 40047-3 0 9992
2 28892 98.2899 215.5102 0013924 183.9743 176.1355 14.71783468 86063
Epoch: Mar 2, 2026 • Age: 29 hours

Current Status

Altitude 672.9 km
Velocity 7.51 km/s
Sub-Earth Point -22.91°S, 19.89°W
Launch Date Oct 27, 2005
Age 20.3 years
Type other

Technical Details

Classification Payload
Mass 1.00 kg
Dry Mass 1.00 kg
Total Mass 1.00 kg
Length 0.10 m
Diameter 0.10 m
Span 0.10 m
Shape Box
Manufacturer WURZ
Bus Type Cubesat 1U
Phase Status In Orbit
Owner/State WURZ/D

Large Constellations

Loading constellations...